Regional Weather Roundup
Issued by NWS Charleston, SC

Current Version | Previous Version | Graphics & Text | Print | Product List | Glossary On
Versions: 1 2 3 4 5 6 7 8 9 10 11 12 13 14 15 16 17 18 19 20 21 22 23 24 25 26 27 28 29 30 31 32 33 34 35 36 37 38 39 40 41 42 43 44 45 46 47 48 49 50
000 ASUS42 KCHS 230112 RWRCHS REGIONAL WEATHER ROUNDUP NATIONAL WEATHER SERVICE CHARLESTON SC 900 PM EDT FRI MAY 22 2015 NOTE: "FAIR" INDICATES FEW OR NO CLOUDS BELOW 12,000 FEET WITH NO SIGNIFICANT WEATHER AND/OR OBSTRUCTIONS TO VISIBILITY. NOT ALL STATIONS ARE QUALITY CONTROLLED BY THE NATIONAL WEATHER SERVICE. USE DATA WITH CAUTION...ESPECIALLY DEWPOINT OBSERVATIONS. SCZ027-030-031-034>040-042>050-230200- ...SOUTHEAST SOUTH CAROLINA... CITY SKY/WX TMP DP RH WIND PRES REMARKS N CHARLESTON CLEAR 69 59 70 SE7 30.21R WATERFRONT PAR N/A 71 62 73 E7 30.18R MOUNT PLEASANT LGT RAIN 66 63 88 CALM 30.21S JOHNS ISLAND CLEAR 68 61 77 CALM 30.22R PINOPOLIS N/A 77 55 47 VRB2 30.13R MONCKS CORNER FAIR 70 59 68 SE3 30.21R SUMMERVILLE FAIR 66 61 82 CALM 30.21S BEAUFORT MCAS CLEAR 70 62 76 E5 30.21R BEAUFORT ARPT FAIR 68 63 83 CALM 30.21R HILTON HEAD IS CLEAR 72 63 73 NE6 30.21S WALTERBORO CLEAR 68 55 64 SE3 30.21S ALLENDALE FAIR 70 57 64 CALM 30.19S ...SOUTHERN MIDLANDS AND PEE DEE... CITY SKY/WX TMP DP RH WIND PRES REMARKS GEORGETOWN NOT AVBL KINGSTREE NOT AVBL ORANGEBURG CLEAR 68 53 58 CALM 30.20R BARNWELL FAIR 70 55 60 CALM 30.21R AIKEN FAIR 68 46 45 NE5 30.25R MANNING FAIR 63 54 72 CALM 30.21R COLUMBIA PTCLDY 74 48 39 N5 30.21R SUMTER CLEAR 71 48 45 NE6 30.20R FLORENCE CLEAR 67 52 58 N5 30.22R MYRTLE BEACH CLEAR 68 57 68 SE6 30.24R N MYRTLE BEACH CLEAR 65 60 84 CALM 30.22R $$ GAZ063-065-086>088-099>101-113>116-118-119-134>141-150-230200- ...SOUTHEAST GEORGIA... CITY SKY/WX TMP DP RH WIND PRES REMARKS SAVANNAH ARPT PTCLDY 70 60 70 E8 30.20R HUNTER AAF CLEAR 69 61 75 E6 30.18R FORT STEWART CLEAR 69 61 76 CALM 30.18R STATESBORO CLEAR 70 60 70 CALM 30.20R SYLVANIA CLEAR 70 61 74 CALM 30.21R CLAXTON FAIR 70 63 78 CALM 30.19R ...CSRA...CENTRAL AND FAR SOUTHEAST GEORGIA... CITY SKY/WX TMP DP RH WIND PRES REMARKS THOMSON CLEAR 67 59 73 CALM 30.26R AUGUSTA-BUSH CLEAR 70 52 52 N6 30.19R AUGUSTA-DANIEL CLEAR 74 50 42 N6 30.21R SWAINSBORO FAIR 70 59 68 NE3 30.20R VIDALIA MOCLDY 75 57 53 E7 30.19R EASTMAN FAIR 72 61 66 CALM 30.20R HAZLEHURST FAIR 76 60 55 NE3 30.16R ALMA CLEAR 74 63 68 E9 30.17R WAYCROSS PTCLDY 74 65 74 E12 30.18R JESUP FAIR 72 64 78 CALM 30.20R BAXLEY FAIR 73 64 73 SE5 30.18R BRUNSWICK CLEAR 70 61 73 NE5 30.20R SAINT SIMONS NOT AVBL $$ SCZ027-028-034-036>038-045-046-048>050-GAZ119-141-230200- ...LAKE AND SUPPLEMENTAL COASTAL OBSERVATIONS... STATION/POSITION TIME TEMP WIND PRES WAVE SWELL AIR SEA DIR/SP/G HT/PER HT/PER/DIR (UTC) (F) (DEG/KT/KT) (MB) (FT/S) (FT/S/D) UPR LAKE MARION NOT AVBL WINYAH BAY 2345 70 90/ 5 1021.0 LAKE MURRAY 0000 75 300/ 2/ 3 1022.0R ACE BASIN NERRS NOT AVBL FORT PULASKI 0000 73 79 80/ 12/ 13 1022.6R SAPELO ISLAND 0000 72 50/ 6 1022.0R $$ ANZ835-935-AMZ111-154-330-350-352-354-370-450-454-472-230200- ...C-MAN AND BUOY OBSERVATIONS... STATION/POSITION TIME TEMP WIND PRES WAVE SWELL AIR SEA DIR/SP/G HT/PER HT/PER/DIR (UTC) (F) (DEG/KT/KT) (MB) (FT/S) (FT/S/D) BUOY 41004 0050 71 76 60/ 14/ 16 1022.2R 3/ 6 2/ 6 BUOY 41008 0050 73 76 80/ 14/ 16 1022.2R 4/ 6 2/ 60/ 7 FOLLY BEACH CMAN 0000 71 80/ 8/ 9 1022.7R CAPERS NEARSHORE 0008 71 90/ 10/ 14 1022.8R FRIPP NEARSHORE 0000 72 90/ 10/ 12 1021.9R STATION/POSITION TIME TEMP WIND PRES WAVE SWELL AIR SEA DIR/SP/G HT/PER HT/PER/DIR (UTC) (F) (DEG/KT/KT) (MB) (FT/S) (FT/S/D) 5E ST. MARYS GA 0021 77 N/A 5/ 6 FRYING PAN BUOY 0050 70 74 60/ 10/ 12 1023.8R 3/ 5 2/ 60/ 5 BUOY 41025 0050 67 77 10/ 8/ 10 1023.7R 3/ 8 3/ 50/ 8 CAPE LOOKOUT NC 0000 67 70/ 6/ 7 1022.9R BUOY 41002 0050 72 74 60/ 16/ 17 1021.4R 5/ 8 3/ 10/ 8 BUOY 41010 0020 80 81 360/ 8/ 10 1020.1R ST AUGUSTINE FL 0100 74 76 40/ 14/ 15 1022.0R $$

USA.gov is the U.S. government's official web portal to all federal, state and local government web resources and services.